Wind_Speed
8 8 8 8 7 7 6 5 5 3 3 3 2 2 2 2 1 1 2 2 3 3 3 3 4 4 4 4 4 5 4 4 4 4 4 3 3 4 3 3 3 2 2
9 9 9 8 7 7 6 5 5 4 3 3 3 2 3 2 2 2 2 2 2 3 3 3 3 4 4 4 3 4 4 4 4 4 3 3 3 3 3 3 3 3 2
9 9 9 9 8 7 6 6 5 5 4 3 3 3 3 3 3 2 2 2 3 3 3 3 3 4 3 3 4 4 5 4 4 4 3 3 3 3 4 4 4 3 2
9 9 9 9 8 8 7 7 6 5 4 3 3 3 3 3 3 2 2 2 3 3 3 3 4 4 4 4 4 5 4 3 3 3 2 2 2 3 4 4 3 3 3
9 9 9 9 9 8 8 7 6 6 4 3 2 2 2 3 3 2 3 1 2 3 4 4 4 4 5 5 5 5 4 3 2 3 3 3 3 3 3 3 3 3 3
9 9 9 9 9 9 9 8 8 7 5 4 3 2 3 3 3 3 3 2 1 1 2 2 4 4 4 4 4 4 4 4 3 3 3 3 3 3 3 3 4 3 3
8 9 9 9 9 9 10 9 9 8 6 4 4 3 3 4 3 5 3 2 1 0 0 0 2 2 2 3 3 3 4 4 4 3 3 3 3 3 3 3 3 3 3
8 8 9 9 9 9 9 9 9 8 6 4 4 3 3 3 4 4 4 3 2 1 1 1 1 1 2 2 2 3 4 4 4 3 3 3 3 4 4 4 5 5 4
8 8 8 8 9 9 9 10 9 8 6 5 4 3 3 3 3 4 3 2 2 1 1 0 1 1 2 2 2 2 3 4 3 2 3 3 4 4 4 4 5 5 4
8 8 8 8 8 9 10 10 10 8 7 5 4 4 3 3 3 3 3 2 2 1 1 0 1 1 2 2 2 2 3 3 4 3 3 4 4 5 5 5 6 6 6
8 8 8 7 8 8 9 10 9 8 7 6 5 4 4 3 3 2 2 2 1 0 0 1 1 1 2 2 2 3 4 4 5 4 4 5 6 6 6 6 6 7 7
8 8 8 8 8 8 9 10 9 8 8 6 5 4 4 3 3 3 2 2 2 2 2 2 2 3 3 3 4 4 4 5 5 6 6 7 7 7 7 7 8 8 8
8 8 7 9 9 9 9 9 9 9 9 7 6 6 5 4 3 3 2 3 3 2 3 3 3 3 3 4 5 5 6 6 7 7 8 8 8 8 8 8 9 9 9
8 8 9 9 10 9 10 10 10 9 9 8 7 7 5 4 4 4 3 3 3 4 4 5 5 4 5 5 5 6 6 7 7 8 8 8 9 9 9 9 9 10 11
9 9 9 9 10 10 10 10 10 10 9 10 8 7 6 6 5 5 5 4 5 5 5 6 6 6 6 6 7 7 7 8 8 8 9 9 9 9 10 10 10 10 11
10 10 9 10 10 10 10 10 10 10 10 10 9 8 7 7 6 6 6 6 6 6 6 7 7 7 7 7 8 8 8 9 9 9 9 9 10 10 10 11 11 12 11
11 10 10 11 11 11 11 11 10 10 10 9 9 9 8 8 7 7 7 6 6 6 7 7 8 7 7 8 8 8 8 9 9 9 10 9 10 10 11 11 11 12 12
13 12 12 12 12 12 13 12 12 11 10 9 9 9 9 9 8 8 7 7 7 7 7 8 9 8 8 9 9 9 9 9 10 10 10 10 10 10 11 11 12 12 12
14 14 13 13 13 13 14 14 14 13 12 11 10 10 10 10 9 9 9 9 8 8 8 8 8 9 9 9 10 10 10 10 10 9 10 10 11 11 11 11 11 11 12
14 15 14 14 14 14 14 15 15 14 13 13 12 11 11 11 10 10 9 10 9 9 9 9 10 10 10 10 11 11 11 12 11 11 11 10 11 11 11 11 11 12 12
16 16 16 16 16 16 16 15 15 16 15 15 14 13 13 12 12 11 10 10 10 10 10 10 10 11 11 11 12 12 12 12 12 11 12 12 12 12 11 12 12 13 13
18 18 18 17 17 17 17 16 16 16 16 15 15 15 14 14 13 12 12 12 11 11 11 11 11 12 12 12 12 12 11 11 12 12 12 12 12 12 13 13 14 13 14
20 19 20 19 19 18 18 18 17 18 17 17 17 16 16 16 15 14 13 13 13 13 13 12 12 13 12 12 12 11 11 11 12 12 12 12 12 12 13 13 14 14 15
21 22 21 21 20 20 20 19 19 19 19 19 19 18 18 17 17 16 15 15 15 15 14 13 13 13 13 13 12 12 12 12 12 12 12 12 12 12 12 13 13 13 14
24 24 23 23 22 22 22 21 20 20 21 21 20 20 20 19 18 18 17 16 16 15 15 15 14 13 13 13 13 13 13 13 13 12 12 12 13 12 12 13 13 13 14
25 25 24 24 25 24 24 24 23 22 22 22 21 21 21 21 19 18 19 18 17 16 16 16 15 14 14 13 13 13 13 13 13 13 13 13 13 12 12 13 13 14 14
Wind_Direction
30 27 28 29 28 30 29 28 30 33 38 35 33 43 56 81 94 99 128 126 138 152 152 158 160 163 166 167 172 172 166 174 165 181 191 198 201 210 214 194 190 199 191
23 20 21 25 25 27 28 23 15 18 29 23 26 39 54 68 80 78 132 144 161 163 160 164 164 168 166 167 170 173 176 178 184 189 191 196 213 225 214 210 211 205 200
23 19 19 21 21 20 18 15 9 11 13 16 27 37 43 50 54 54 109 140 172 168 165 173 166 166 175 175 173 172 179 173 183 189 193 207 224 238 229 220 225 218 221
20 21 22 21 21 18 15 13 8 9 6 9 21 32 33 36 42 50 94 137 164 174 169 172 176 182 190 183 183 184 184 188 182 189 202 211 233 242 241 225 223 221 219
17 18 21 23 22 19 17 12 7 3 360 5 12 19 20 17 21 36 41 44 167 170 165 159 166 173 174 178 186 189 184 192 203 205 212 228 237 245 251 231 221 221 224
15 15 18 20 19 17 15 12 8 3 359 360 6 15 15 18 35 40 41 37 65 154 162 144 160 162 166 178 187 191 199 211 223 224 228 241 242 245 253 235 222 225 238
12 13 14 13 11 12 13 13 9 6 6 5 2 8 9 24 35 38 52 55 60 85 148 141 144 140 167 195 203 212 221 226 229 234 248 257 257 260 259 244 237 238 256
3 10 9 8 7 7 9 8 8 3 360 5 3 3 7 17 26 29 45 65 91 123 95 84 154 149 169 197 217 213 222 231 242 253 268 285 278 276 271 259 246 248 249
357 3 3 3 3 2 2 4 5 4 4 5 3 360 4 6 24 27 28 39 88 134 123 80 194 176 165 191 222 232 240 248 252 262 274 292 297 285 280 272 261 258 261
346 349 354 357 359 358 359 1 2 2 3 1 3 2 357 353 360 19 34 48 58 120 143 190 294 257 234 234 239 245 249 253 260 262 268 284 285 282 281 280 274 270 271
335 337 342 351 354 354 356 359 0 1 1 0 359 360 357 352 349 2 22 41 48 75 253 272 304 296 286 271 266 259 254 260 264 267 270 280 277 275 277 278 273 270 271
327 329 336 342 350 352 355 356 358 0 1 1 358 360 5 9 9 12 14 25 28 4 344 314 318 308 283 280 278 267 263 268 266 270 272 275 276 275 277 279 275 273 273
318 323 329 336 345 350 350 351 352 353 356 353 348 346 351 351 350 350 350 354 351 335 326 317 301 294 282 295 282 277 275 275 274 273 273 275 277 279 281 282 279 278 276
309 313 320 327 333 340 345 349 350 350 353 349 341 335 338 340 334 328 328 328 325 315 319 317 309 299 289 291 289 284 283 286 280 277 279 278 277 278 280 282 283 281 278
301 302 311 320 324 328 335 342 344 345 347 348 340 331 324 322 322 320 316 315 311 304 303 307 307 300 298 294 293 289 289 288 287 283 282 279 276 276 279 281 283 283 280
299 296 300 305 313 318 324 331 336 336 338 343 344 334 325 320 316 317 312 308 309 307 302 302 307 294 295 296 291 286 285 286 288 285 281 282 278 278 280 281 282 283 280
297 296 296 298 303 308 312 319 325 326 327 333 337 332 324 319 313 309 308 308 306 304 308 306 306 297 291 296 296 292 292 290 289 286 283 283 280 278 280 282 281 282 282
294 294 296 296 297 299 302 307 313 315 316 320 326 326 321 316 310 305 300 300 302 300 299 302 305 302 297 296 298 297 296 294 291 287 286 285 281 279 280 281 279 282 284
292 291 293 293 294 294 295 298 303 305 309 312 314 315 315 313 308 303 300 298 299 298 297 297 300 300 298 298 300 297 293 290 292 291 288 285 286 286 285 285 283 283 284
289 289 290 290 290 291 292 294 295 296 300 303 304 305 305 306 305 302 298 295 294 294 297 297 298 299 295 294 296 296 294 293 293 291 290 289 289 286 286 286 285 286 286
288 286 286 286 287 288 287 288 290 291 292 294 297 298 299 298 297 297 296 294 290 291 295 296 297 298 296 295 296 296 296 294 291 288 289 291 287 285 286 286 287 287 285
284 283 282 282 284 284 284 286 288 289 288 290 293 294 295 294 291 291 292 291 290 292 294 294 296 297 297 298 299 299 298 297 294 290 290 290 284 283 285 286 287 286 286
282 282 281 281 281 281 282 284 285 285 285 285 287 290 288 288 287 286 286 288 290 291 292 292 294 296 297 297 298 297 298 300 302 297 294 293 286 285 287 289 289 288 287
282 282 280 279 279 279 280 281 281 281 283 283 282 284 285 283 281 280 283 285 287 290 287 288 291 294 295 296 296 296 297 297 299 301 299 294 289 289 287 287 287 289 288
278 281 279 279 278 276 277 277 279 279 279 281 282 282 282 281 278 279 282 283 286 286 283 284 289 292 293 295 296 295 295 295 295 296 296 292 294 293 292 291 291 293 291
276 277 278 277 274 273 273 275 276 276 277 280 279 280 280 277 278 278 278 280 282 282 281 282 286 290 293 296 297 296 295 295 295 295 294 292 291 292 292 292 294 294 292
Height
5889 5887 5886 5885 5884 5883 5882 5881 5880 5879 5879 5878 5877 5876 5875 5875 5875 5874 5874 5874 5874 5875 5875 5876 5876 5877 5877 5878 5878 5879 5880 5881 5882 5883 5884 5884 5885 5886 5887 5887 5888 5888 5889
5890 5888 5887 5886 5885 5883 5882 5881 5881 5880 5879 5878 5877 5877 5876 5875 5875 5874 5874 5874 5874 5875 5875 5876 5877 5877 5878 5878 5878 5879 5880 5881 5882 5883 5884 5885 5885 5886 5887 5887 5888 5888 5888
5891 5889 5888 5887 5885 5884 5883 5882 5881 5880 5879 5878 5877 5877 5876 5876 5875 5875 5874 5874 5874 5875 5876 5876 5877 5877 5877 5878 5879 5879 5880 5881 5882 5883 5884 5885 5885 5886 5886 5887 5887 5888 5888
5892 5890 5889 5887 5886 5885 5884 5883 5881 5881 5880 5879 5878 5877 5877 5876 5875 5875 5874 5874 5875 5875 5876 5876 5876 5877 5877 5878 5879 5880 5880 5881 5882 5883 5884 5885 5885 5886 5886 5887 5887 5888 5888
5893 5891 5890 5888 5887 5886 5884 5883 5882 5881 5880 5879 5878 5878 5877 5877 5876 5875 5875 5874 5875 5875 5876 5876 5876 5877 5877 5878 5879 5880 5881 5881 5882 5883 5884 5885 5885 5885 5885 5886 5886 5887 5888
5893 5892 5890 5889 5888 5887 5885 5884 5882 5881 5880 5879 5879 5878 5878 5877 5876 5875 5874 5875 5875 5875 5876 5876 5877 5877 5877 5878 5879 5880 5880 5881 5882 5882 5883 5884 5884 5885 5885 5886 5886 5887 5887
5893 5892 5891 5890 5889 5887 5886 5884 5883 5882 5881 5880 5879 5879 5878 5877 5876 5875 5874 5874 5875 5875 5876 5876 5877 5877 5877 5878 5879 5879 5880 5881 5881 5882 5883 5883 5884 5884 5885 5885 5886 5886 5887
5893 5893 5892 5890 5889 5888 5886 5885 5883 5882 5881 5880 5880 5879 5879 5878 5877 5876 5875 5875 5875 5875 5876 5877 5877 5877 5878 5878 5879 5879 5880 5881 5881 5882 5882 5883 5883 5884 5884 5885 5885 5885 5886
5893 5893 5892 5891 5890 5888 5887 5885 5884 5882 5881 5881 5880 5879 5879 5878 5878 5877 5876 5876 5875 5875 5876 5877 5877 5878 5878 5878 5878 5879 5880 5880 5881 5881 5882 5882 5882 5883 5883 5884 5884 5884 5885
5894 5893 5893 5891 5890 5889 5887 5886 5884 5883 5882 5881 5880 5880 5879 5879 5879 5878 5878 5877 5877 5877 5877 5877 5877 5878 5878 5878 5878 5879 5879 5880 5880 5880 5881 5881 5881 5882 5882 5882 5883 5883 5884
5895 5893 5892 5892 5890 5889 5888 5886 5885 5884 5883 5882 5881 5880 5880 5879 5879 5879 5878 5878 5877 5877 5877 5877 5877 5878 5878 5878 5878 5878 5879 5879 5879 5879 5880 5880 5881 5881 5881 5881 5881 5882 5882
5894 5893 5892 5891 5890 5889 5888 5887 5886 5884 5883 5882 5881 5881 5880 5880 5879 5879 5878 5878 5878 5878 5877 5878 5878 5877 5877 5878 5878 5878 5878 5878 5879 5879 5879 5879 5879 5879 5879 5880 5880 5880 5880
5894 5893 5892 5891 5890 5889 5888 5887 5886 5885 5883 5882 5881 5881 5880 5880 5879 5879 5879 5878 5878 5878 5878 5878 5878 5877 5876 5877 5877 5877 5877 5877 5877 5878 5878 5878 5878 5878 5878 5878 5878 5878 5879
5894 5893 5892 5891 5890 5889 5888 5887 5886 5885 5884 5882 5881 5881 5880 5880 5879 5879 5878 5878 5877 5877 5877 5877 5877 5877 5877 5877 5876 5876 5876 5876 5876 5876 5876 5876 5876 5876 5876 5876 5876 5876 5876
5894 5893 5892 5891 5890 5889 5888 5887 5886 5885 5883 5882 5881 5880 5880 5879 5879 5878 5878 5877 5877 5877 5876 5876 5876 5876 5876 5875 5875 5875 5875 5874 5874 5874 5874 5874 5874 5874 5874 5874 5874 5874 5874
5892 5892 5891 5890 5890 5889 5888 5887 5885 5884 5883 5882 5881 5880 5879 5879 5878 5878 5877 5877 5876 5876 5876 5876 5875 5875 5875 5874 5874 5874 5873 5872 5872 5872 5872 5871 5871 5872 5871 5871 5871 5871 5871
5891 5890 5890 5889 5889 5888 5887 5886 5885 5884 5883 5882 5880 5879 5879 5878 5878 5877 5876 5876 5876 5876 5875 5875 5874 5874 5874 5873 5873 5872 5872 5871 5870 5870 5869 5869 5869 5869 5869 5869 5869 5869 5869
5889 5889 5889 5888 5887 5886 5886 5885 5884 5883 5882 5881 5880 5879 5878 5878 5877 5876 5876 5875 5875 5875 5874 5874 5873 5873 5872 5871 5871 5870 5870 5869 5868 5868 5867 5867 5867 5866 5866 5866 5866 5866 5866
5887 5887 5887 5886 5885 5885 5884 5883 5883 5882 5881 5880 5879 5879 5878 5877 5876 5875 5875 5874 5874 5874 5873 5873 5872 5871 5871 5870 5869 5868 5868 5867 5865 5865 5866 5865 5864 5864 5864 5863 5863 5863 5863
5884 5884 5884 5884 5883 5882 5882 5881 5881 5880 5879 5879 5878 5877 5876 5876 5875 5874 5873 5873 5872 5872 5872 5871 5871 5870 5869 5868 5867 5867 5866 5865 5864 5863 5862 5861 5861 5861 5861 5861 5861 5861 5860
5881 5881 5881 5880 5880 5879 5879 5879 5878 5878 5877 5877 5876 5875 5875 5874 5873 5873 5872 5872 5871 5871 5870 5870 5869 5868 5867 5866 5866 5865 5864 5863 5862 5861 5860 5860 5859 5859 5858 5858 5858 5857 5857
5878 5878 5877 5877 5876 5876 5876 5875 5875 5875 5874 5874 5874 5873 5872 5872 5871 5871 5870 5870 5869 5869 5868 5868 5867 5866 5865 5864 5863 5862 5862 5861 5860 5859 5858 5858 5857 5856 5856 5855 5854 5854 5854
5873 5873 5873 5873 5873 5872 5872 5872 5872 5871 5871 5871 5871 5870 5869 5869 5869 5868 5868 5868 5867 5867 5866 5865 5865 5864 5863 5862 5861 5860 5859 5859 5858 5857 5856 5855 5854 5853 5853 5852 5851 5851 5850
5868 5868 5868 5868 5869 5868 5868 5868 5868 5868 5868 5867 5867 5867 5866 5866 5865 5865 5865 5865 5864 5864 5863 5862 5862 5861 5860 5859 5858 5857 5857 5855 5855 5854 5853 5852 5851 5850 5849 5849 5848 5847 5847
5863 5863 5863 5863 5864 5864 5864 5863 5863 5864 5863 5863 5863 5863 5862 5862 5862 5862 5862 5861 5861 5860 5860 5859 5859 5858 5857 5856 5856 5854 5854 5852 5851 5851 5850 5849 5848 5847 5846 5846 5845 5844 5844
5857 5858 5858 5858 5859 5859 5859 5858 5858 5859 5859 5858 5858 5858 5858 5857 5857 5858 5858 5858 5857 5857 5856 5856 5855 5855 5854 5853 5852 5851 5850 5849 5848 5848 5847 5846 5845 5844 5843 5843 5842 5841 5840